Middletown, OH

3:06 AM EDT on September 28, 2016 (GMT -0400)
Hook Field Municipal

Weather History for KMWO - October, 2011

Change the Weather History Date:

Sunday, October 9, 2011

  Actual Average (KDAY) Record (KDAY)
Temperature  
Mean Temperature 60 °F 56 °F  
Max Temperature 73 °F 66 °F 86 °F (1939)
Min Temperature 48 °F 46 °F 30 °F (1989)
Degree Days  
Heating Degree Days 4 10  
Month to date heating degree days 75  
Since 1 July heating degree days 165  
Cooling Degree Days 0 1  
Month to date cooling degree days 9  
Year to date cooling degree days 890  
Growing Degree Days 10 (Base 50)    
Moisture  
Dew Point 51 °F    
Average Humidity 77    
Maximum Humidity 100    
Minimum Humidity 38    
Precipitation  
Precipitation 0.00 in 0.10 in 1.54 in (1990)
Month to date precipitation 0.87  
Year to date precipitation 32.48  
Snow  
Snow 0.00 in 0.00 in - ()
Month to date snowfall 0.0  
Since 1 July snowfall 0.0  
Since 1 September snowfall 0.0  
Snow Depth -    
Sea Level Pressure  
Sea Level Pressure 30.38 in    
Wind  
Wind Speed 2 mph (NE)    
Max Wind Speed 8 mph    
Max Gust Speed -    
Visibility 9 miles    
Events      
T = Trace of Precipitation, MM = Missing Value Source: NWS Daily Summary

Daily Weather History Graph

Daily Weather History Graph

Search for Another Location

Airport or City:

Trip Planner

Search our weather history database for the weather conditions in past years. The results will help you decide how hot, cold, wet, or windy it might be!

Date:

Astronomy

Oct. 09, 2011 Rise Set
Actual Time 7:41 AM EDT 7:07 PM EDT
Civil Twilight 7:14 AM EDT 7:34 PM EDT
Nautical Twilight 6:43 AM EDT 8:05 PM EDT
Astronomical Twilight 6:11 AM EDT 8:37 PM EDT
Moon 5:44 PM EDT (10/9) 5:25 AM EDT (10/9)
Length of Visible Light 12h 20m
Length of Day
11h 26m
Waxing Gibbous, 95% of the Moon is Illuminated
Oct 9
Waxing Gibbous
Oct 11
Full
Oct 19
Last Quarter
Oct 26
New
Nov 2
First Quarter

Hourly Weather History & Observations

Time (EDT) Temp. Dew Point Humidity Pressure Visibility Wind Dir Wind Speed Gust Speed Precip Events Conditions
12:15 AM 55.4 °F 53.6 °F 94% 30.37 in 7.0 mi Calm Calm - N/A   Overcast
12:35 AM 55.4 °F 53.6 °F 94% 30.37 in 7.0 mi Calm Calm - N/A   Mostly Cloudy
12:55 AM 53.6 °F 51.8 °F 94% 30.37 in 10.0 mi Calm Calm - N/A   Mostly Cloudy
1:15 AM 53.6 °F 53.6 °F 100% 30.37 in 10.0 mi Calm Calm - N/A   Mostly Cloudy
1:35 AM 53.6 °F 51.8 °F 94% 30.37 in 7.0 mi North 3.5 mph - N/A   Mostly Cloudy
1:55 AM 53.6 °F 51.8 °F 94% 30.38 in 10.0 mi Calm Calm - N/A   Scattered Clouds
2:15 AM 53.6 °F 51.8 °F 94% 30.37 in 10.0 mi Calm Calm - N/A   Scattered Clouds
2:35 AM 53.6 °F 51.8 °F 94% 30.38 in 7.0 mi Calm Calm - N/A   Scattered Clouds
2:55 AM 53.6 °F 51.8 °F 94% 30.38 in 10.0 mi NNE 3.5 mph - N/A   Scattered Clouds
3:35 AM 51.8 °F 50.0 °F 94% 30.38 in 10.0 mi Calm Calm - N/A   Clear
3:55 AM 51.8 °F 50.0 °F 94% 30.38 in 10.0 mi Calm Calm - N/A   Clear
4:15 AM 51.8 °F 50.0 °F 94% 30.38 in 10.0 mi NNE 3.5 mph - N/A   Clear
4:35 AM 50.0 °F 50.0 °F 100% 30.38 in 10.0 mi Calm Calm - N/A   Clear
4:55 AM 50.0 °F 48.2 °F 94% 30.38 in 10.0 mi Calm Calm - N/A   Clear
5:15 AM 50.0 °F 48.2 °F 94% 30.38 in 7.0 mi NNE 3.5 mph - N/A   Clear
5:35 AM 48.2 °F 46.4 °F 93% 30.38 in 7.0 mi Calm Calm - N/A   Clear
5:55 AM 48.2 °F 46.4 °F 93% 30.38 in 5.0 mi NNE 4.6 mph - N/A   Clear
6:15 AM 48.2 °F 46.4 °F 93% 30.39 in 5.0 mi NNE 3.5 mph - N/A   Clear
6:35 AM 48.2 °F 46.4 °F 93% 30.38 in 7.0 mi NNE 3.5 mph - N/A   Clear
7:15 AM 48.2 °F 46.4 °F 93% 30.39 in 7.0 mi NE 3.5 mph - N/A   Clear
7:35 AM 48.2 °F 46.4 °F 93% 30.40 in 5.0 mi North 3.5 mph - N/A   Clear
7:55 AM 48.2 °F 46.4 °F 93% 30.40 in 3.0 mi Calm Calm - N/A   Clear
8:15 AM 48.2 °F 46.4 °F 93% 30.41 in 5.0 mi Calm Calm - N/A   Clear
8:35 AM 51.8 °F 50.0 °F 94% 30.41 in 7.0 mi Calm Calm - N/A   Clear
8:55 AM 53.6 °F 51.8 °F 94% 30.41 in 10.0 mi Calm Calm - N/A   Clear
9:15 AM 55.4 °F 53.6 °F 94% 30.42 in 10.0 mi Calm Calm - N/A   Clear
9:35 AM 55.4 °F 51.8 °F 88% 30.42 in 10.0 mi Calm Calm - N/A   Clear
9:55 AM 59.0 °F 53.6 °F 82% 30.42 in 10.0 mi NE 3.5 mph - N/A   Clear
10:15 AM 60.8 °F 53.6 °F 77% 30.42 in 10.0 mi Calm Calm - N/A   Clear
10:35 AM 60.8 °F 53.6 °F 77% 30.42 in 10.0 mi Calm Calm - N/A   Clear
10:55 AM 62.6 °F 55.4 °F 77% 30.42 in 10.0 mi Calm Calm - N/A   Clear
11:15 AM 66.2 °F 55.4 °F 68% 30.42 in 10.0 mi Calm Calm - N/A   Clear
11:35 AM 68.0 °F 57.2 °F 68% 30.42 in 10.0 mi Calm Calm - N/A   Clear
11:55 AM 68.0 °F 55.4 °F 64% 30.41 in 10.0 mi Calm Calm - N/A   Clear
12:15 PM 68.0 °F 55.4 °F 64% 30.40 in 10.0 mi Calm Calm - N/A   Clear
12:35 PM 68.0 °F 55.4 °F 64% 30.39 in 10.0 mi NE 4.6 mph - N/A   Clear
12:55 PM 69.8 °F 55.4 °F 60% 30.38 in 10.0 mi Calm Calm - N/A   Clear
1:35 PM 73.4 °F 55.4 °F 53% 30.37 in 10.0 mi NE 5.8 mph - N/A   Clear
1:55 PM 73.4 °F 51.8 °F 47% 30.36 in 10.0 mi East 4.6 mph - N/A   Clear
2:15 PM 73.4 °F 53.6 °F 50% 30.35 in 10.0 mi NNE 5.8 mph - N/A   Clear
2:35 PM 73.4 °F 51.8 °F 47% 30.34 in 10.0 mi NE 4.6 mph - N/A   Clear
2:55 PM 73.4 °F 48.2 °F 41% 30.33 in 10.0 mi SE 8.1 mph - N/A   Clear
3:15 PM 73.4 °F 46.4 °F 38% 30.33 in 10.0 mi East 8.1 mph - N/A   Clear
3:35 PM 73.4 °F 46.4 °F 38% 30.32 in 10.0 mi East 8.1 mph - N/A   Clear
3:55 PM 73.4 °F 46.4 °F 38% 30.32 in 10.0 mi ENE 4.6 mph - N/A   Clear
4:15 PM 73.4 °F 50.0 °F 44% 30.31 in 10.0 mi ENE 6.9 mph - N/A   Clear
4:35 PM 73.4 °F 46.4 °F 38% 30.31 in 10.0 mi ENE 6.9 mph - N/A   Clear
4:55 PM 73.4 °F 48.2 °F 41% 30.30 in 10.0 mi East 6.9 mph - N/A   Clear
5:15 PM 73.4 °F 50.0 °F 44% 30.30 in 10.0 mi ENE 5.8 mph - N/A   Clear
5:35 PM 73.4 °F 44.6 °F 36% 30.30 in 7.0 mi East 4.6 mph - N/A   Clear
5:55 PM 73.4 °F 51.8 °F 47% 30.30 in 10.0 mi East 4.6 mph - N/A   Clear
6:15 PM 73.4 °F 51.8 °F 47% 30.31 in 10.0 mi ESE 4.6 mph - N/A   Clear
6:35 PM 71.6 °F 50.0 °F 46% 30.30 in 10.0 mi East 4.6 mph - N/A   Clear
6:55 PM 68.0 °F 50.0 °F 52% 30.30 in 10.0 mi ENE 3.5 mph - N/A   Clear
7:15 PM 68.0 °F 53.6 °F 60% 30.30 in 10.0 mi Calm Calm - N/A   Clear
7:35 PM 62.6 °F 53.6 °F 72% 30.30 in 10.0 mi Calm Calm - N/A   Clear
7:55 PM 62.6 °F 53.6 °F 72% 30.30 in 10.0 mi Calm Calm - N/A   Clear
8:15 PM 60.8 °F 55.4 °F 82% 30.30 in 10.0 mi Calm Calm - N/A   Clear
8:35 PM 59.0 °F 53.6 °F 82% 30.30 in 10.0 mi Calm Calm - N/A   Clear
8:55 PM 60.8 °F 53.6 °F 77% 30.30 in - Calm Calm - N/A   Clear
9:15 PM 59.0 °F 53.6 °F 82% 30.30 in - Calm Calm - N/A   Unknown
9:35 PM 59.0 °F 53.6 °F 82% 30.29 in - Calm Calm - N/A   Unknown
10:15 PM 59.0 °F 53.6 °F 82% 30.29 in 10.0 mi Calm Calm - N/A   Clear
10:35 PM 55.4 °F 53.6 °F 94% 30.29 in 10.0 mi Calm Calm - N/A   Clear
10:55 PM 55.4 °F 53.6 °F 94% 30.29 in 10.0 mi Calm Calm - N/A   Clear
11:15 PM 55.4 °F 53.6 °F 94% 30.29 in 10.0 mi Calm Calm - N/A   Clear
11:35 PM 55.4 °F 51.8 °F 88% 30.29 in 10.0 mi Calm Calm - N/A   Clear
11:55 PM 55.4 °F 53.6 °F 94% 30.29 in 10.0 mi Calm Calm - N/A   Clear